Torna al catalogo

QIANFAN-92

AttivoComunicazioniPO
NORAD 66034·PAYLOAD·🇨🇳 China

Lanciato Oct 17, 2025 da Taiyuan Satellite Launch Center

Loading…

Prossimi Passaggi (prossime 24 ore)

TLE

AggiornatoSource: Space-Track

Epoca: Sep 14, 2026, 07:30 UTC

1 66034U 25233B   26257.31269255  .00000067  00000-0  84486-4 0  9996
2 66034  89.0029  34.1336 0001959  99.4697 260.6676 13.50998626 45211

Traccia QIANFAN-92 in tempo reale con AllMySat

Download on the App Store